This is the latest recevied weather packets stored in our database for station/object N1CTF-9. If no packets are shown the sender has not sent any weather packets the latest 10 day(s).
| Time | Temp. | Humidity | Pressure | Rain* | Wind** | Luminosity | Snow |
|---|---|---|---|---|---|---|---|
| 1777379790 | 13.33° C | 94% | 1011.5 hPa | 0 mm | - | 377 W/m² | - |
| 1777379190 | 13.33° C | 94% | 1011.4 hPa | 0 mm | - | 323 W/m² | - |
| 1777378590 | 12.78° C | 93% | 1011.5 hPa | 0 mm | - | 271 W/m² | - |
| 1777377990 | 12.78° C | 93% | 1011.3 hPa | 0 mm | - | 194 W/m² | - |
| 1777377390 | 12.78° C | 93% | 1011.3 hPa | 0 mm | - | 229 W/m² | - |
| 1777376790 | 12.78° C | 93% | 1011.3 hPa | 0 mm | - | 329 W/m² | - |
| 1777376190 | 12.78° C | 94% | 1011.1 hPa | 0 mm | - | 240 W/m² | - |
| 1777375590 | 12.78° C | 94% | 1010.9 hPa | 0 mm | - | 197 W/m² | - |
| 1777374990 | 12.78° C | 93% | 1011.2 hPa | 0 mm | - | 156 W/m² | - |
| 1777374390 | 12.78° C | 93% | 1010.9 hPa | 0 mm | - | 730 W/m² | - |
| 1777373790 | 12.78° C | 93% | 1010.9 hPa | 0 mm | - | 420 W/m² | - |
| 1777373190 | 12.78° C | 92% | 1010.9 hPa | 0 mm | - | 160 W/m² | - |
| 1777372590 | 12.78° C | 92% | 1010.7 hPa | 0 mm | - | 70 W/m² | - |
| 1777371990 | 12.78° C | 91% | 1010.3 hPa | 0 mm | - | 20 W/m² | - |
| 1777371390 | 12.78° C | 92% | 1010 hPa | 0 mm | - | 0 W/m² | - |
| 1777370790 | 12.78° C | 92% | 1009.9 hPa | 0 mm | - | 0 W/m² | - |
| 1777370190 | 12.78° C | 92% | 1009.6 hPa | 0 mm | - | 0 W/m² | - |
| 1777369590 | 12.78° C | 93% | 1009.3 hPa | 0 mm | - | 0 W/m² | - |
| 1777368990 | 13.33° C | 92% | 1009 hPa | 0 mm | - | 0 W/m² | - |
| 1777368390 | 13.33° C | 91% | 1009 hPa | 0 mm | - | 0 W/m² | - |
| 1777367790 | 13.33° C | 92% | 1008 hPa | 0 mm | - | 0 W/m² | - |
| 1777367190 | 13.89° C | 95% | 1007.1 hPa | 0.25 mm | - | 0 W/m² | - |
| 1777366590 | 13.89° C | 96% | 1007 hPa | 0.51 mm | - | 0 W/m² | - |
| 1777365990 | 14.44° C | 96% | 1006.8 hPa | 0.51 mm | - | 0 W/m² | - |
| 1777365390 | 14.44° C | 97% | 1006.6 hPa | 0.76 mm | - | 0 W/m² | - |
* Rain latest hour (hover to see other rain measurements)
** Current wind speed in m/s (hover to see current wind gust speed)